Probability
23 24 24 26 28 26 22 18 14 13 12 11 11 9 7 5 4 3 3 4 6 6 4 3 2 2 2 1 0 0 0 0 0 0 0 0 0 0 0 0 0 0 1
24 24 24 27 30 28 23 19 17 15 14 12 11 9 7 5 4 3 3 4 6 6 4 3 2 2 2 1 0 0 0 0 0 0 0 0 0 0 0 0 1 1 1
26 25 25 28 32 31 25 23 21 18 16 14 12 11 9 7 4 2 2 3 5 5 4 3 3 3 2 1 0 0 0 0 0 0 0 0 0 0 0 0 1 1 1
25 25 26 29 33 31 27 26 24 21 19 17 14 13 12 9 5 2 1 2 3 4 3 3 3 3 2 1 0 0 0 0 0 0 0 0 0 0 0 0 1 1 0
22 23 25 28 30 29 27 25 24 22 21 19 16 13 11 9 5 3 3 2 1 2 2 2 3 3 1 1 1 1 0 0 0 0 0 0 0 0 0 0 0 0 0
20 21 24 28 29 27 25 23 21 20 20 19 15 11 9 7 5 4 4 3 1 0 1 2 3 2 1 1 2 2 1 0 0 0 0 0 0 0 0 0 0 0 0
19 20 24 29 31 30 27 23 20 18 17 16 13 9 7 7 6 5 5 5 2 0 1 2 3 2 1 2 3 3 1 1 0 0 0 0 0 0 0 0 0 0 0
20 22 26 31 33 32 29 25 22 19 16 14 12 9 8 7 7 6 7 7 6 3 1 2 3 3 2 3 3 3 3 2 1 0 0 0 0 0 0 0 0 0 0
24 26 29 31 31 31 29 27 25 22 18 14 11 10 10 9 8 8 8 8 7 5 2 1 2 3 3 3 4 4 3 2 1 0 0 0 0 0 0 0 0 0 0
24 27 30 29 28 28 27 25 24 22 18 14 11 10 11 11 9 9 8 7 5 4 2 1 1 1 3 4 5 5 3 2 1 0 0 0 0 0 0 0 0 0 0
25 26 28 27 26 25 22 21 20 18 15 12 11 11 12 12 10 8 6 5 3 3 3 2 1 1 2 4 5 4 2 2 1 0 0 0 0 0 0 0 0 0 0
25 25 26 26 25 23 21 20 18 15 14 13 13 14 13 12 10 7 5 4 3 3 3 2 1 0 1 2 2 1 1 2 2 1 1 0 0 0 0 0 0 0 0
22 22 23 24 24 22 22 22 19 16 16 15 15 15 14 13 10 7 4 4 4 4 3 2 1 0 0 0 0 0 1 1 2 2 2 1 1 0 0 0 0 0 0
17 17 18 21 23 23 23 23 20 17 16 15 14 14 13 13 11 7 4 4 5 5 4 3 2 1 0 0 0 0 1 1 1 3 3 3 2 1 0 0 0 0 0
14 13 14 17 20 21 21 20 18 16 16 16 14 13 13 13 12 9 6 5 6 6 4 3 3 2 1 0 0 0 0 0 1 2 3 3 2 1 0 0 0 0 0
11 12 14 16 17 17 17 16 15 14 15 16 15 13 13 14 14 11 8 5 5 5 4 3 3 3 2 0 0 0 0 0 0 1 3 3 1 1 0 0 0 0 0
9 12 13 13 13 14 15 15 14 13 13 14 13 12 12 13 13 12 9 6 5 5 5 3 2 2 2 1 0 0 0 0 0 1 2 2 1 0 0 0 0 0 0
8 10 12 11 11 12 14 15 13 11 11 12 12 11 10 10 10 9 8 6 4 5 5 3 1 1 1 1 0 0 0 0 0 0 1 1 0 0 0 0 0 0 0
7 8 11 11 10 10 12 12 10 9 10 11 11 10 9 8 7 6 5 4 4 4 4 2 1 0 0 0 0 0 0 0 0 0 0 0 0 0 0 0 0 0 0
7 8 10 11 10 10 11 11 10 8 8 11 11 9 9 9 6 4 3 4 3 3 2 1 0 0 0 0 0 0 0 0 0 0 0 0 0 0 0 0 0 0 0
10 11 11 11 11 12 13 13 11 7 6 9 10 9 9 10 8 6 5 5 4 3 3 1 0 0 0 0 0 0 0 0 0 0 0 0 0 0 0 0 0 0 0
12 12 13 13 13 14 14 13 10 6 6 8 9 9 10 10 10 9 9 8 6 4 3 2 0 0 0 0 0 0 0 1 1 1 0 0 0 0 0 0 0 0 0
11 11 13 14 14 14 14 11 8 6 6 7 8 10 11 11 11 13 13 11 8 6 4 3 2 2 2 2 1 1 0 1 1 1 0 0 0 0 0 0 0 0 0
9 10 11 13 14 14 13 11 9 7 7 7 8 9 10 11 13 13 13 12 11 10 8 7 5 5 5 4 4 2 1 0 1 1 0 0 0 0 0 0 0 0 0
9 10 11 12 13 12 11 11 11 9 7 7 7 7 8 10 12 12 11 10 11 11 10 10 9 7 5 3 3 2 1 0 0 0 0 0 0 0 0 0 0 0 0
10 10 12 12 11 10 9 10 11 10 8 7 6 6 7 9 10 11 9 7 8 9 10 10 10 8 4 2 1 1 0 0 0 0 0 0 0 0 0 0 0 0 0
Wind_Speed
6 5 7 8 8 7 7 7 7 6 5 3 3 2 2 2 2 2 3 4 4 4 4 3 3 3 3 3 2 2 1 0 1 2 1 2 1 0 1 1 2 2 3
6 5 6 7 7 8 8 7 7 6 5 4 3 2 2 2 2 2 2 3 4 4 4 4 3 2 2 2 2 2 1 0 1 2 2 1 3 2 1 1 2 2 2
11 9 7 7 7 7 8 7 7 6 5 4 3 2 2 1 1 1 1 2 3 3 3 4 3 3 3 2 2 3 3 1 0 1 3 2 2 2 2 1 1 2 2
9 9 8 9 9 8 7 7 7 6 5 5 4 4 3 2 2 2 2 2 2 2 3 3 3 3 2 3 2 3 2 3 1 1 1 2 3 2 1 2 1 1 2
10 10 10 9 8 7 6 6 6 5 5 5 5 4 3 2 1 2 2 2 1 2 2 3 3 3 2 3 2 2 2 2 2 1 1 0 1 1 2 1 2 1 1
9 9 9 9 7 6 5 6 6 5 5 5 5 5 5 3 3 3 3 2 1 1 2 3 3 3 3 3 3 2 3 2 2 2 1 2 1 1 2 2 2 1 2
9 9 9 8 7 7 7 7 7 5 5 5 5 5 5 5 5 4 3 3 1 1 2 2 2 2 2 3 2 2 2 2 2 2 2 2 2 2 2 2 1 1 1
7 9 9 9 8 8 8 7 7 6 5 5 4 3 4 3 3 3 3 3 2 3 3 2 2 2 3 3 2 2 2 2 2 2 2 2 2 2 2 3 3 1 1
8 8 8 8 8 8 7 7 7 6 5 5 4 3 3 3 3 3 2 2 2 2 2 2 2 2 2 3 3 2 2 2 2 2 2 1 1 1 2 2 3 4 2
8 7 7 8 7 7 6 6 6 6 5 4 4 4 3 3 3 3 3 3 2 2 2 2 2 2 1 2 2 2 2 1 1 1 1 1 1 1 1 1 1 2 3
8 7 6 6 7 6 5 6 5 5 5 4 4 3 3 3 2 2 2 3 2 2 3 2 2 2 2 2 2 2 2 2 2 1 2 2 2 1 1 1 1 1 2
8 7 6 5 5 5 5 4 4 5 5 5 4 4 3 3 2 2 2 2 2 2 3 2 2 2 2 2 2 3 2 2 2 3 2 2 2 2 1 1 2 2 2
7 6 6 5 5 5 4 4 4 4 4 4 4 3 3 3 3 2 2 2 2 2 2 2 2 2 2 2 2 2 2 3 3 3 3 3 2 2 1 2 2 1 1
6 6 5 5 4 4 4 4 3 3 4 4 4 3 3 3 3 2 2 2 2 2 2 2 2 2 2 2 2 2 2 2 2 2 2 2 3 3 3 2 2 2 1
5 5 5 4 4 4 3 3 3 3 4 4 3 3 3 3 2 2 2 2 2 3 2 2 2 2 2 2 2 2 2 2 2 2 2 2 3 3 3 3 3 3 2
6 5 5 5 4 4 4 3 3 2 3 4 3 3 3 3 2 2 2 2 2 2 1 1 2 2 2 2 3 2 2 2 2 2 2 3 2 3 4 4 4 5 5
6 6 5 5 5 4 4 5 4 2 3 3 3 2 3 3 2 2 2 1 2 2 1 1 2 2 3 3 3 3 2 3 3 3 3 3 2 2 2 3 4 4 6
6 5 4 4 3 3 3 3 3 3 2 2 3 3 3 2 2 2 2 2 2 2 2 2 2 2 3 4 4 4 2 2 3 3 4 3 2 2 2 2 2 2 3
4 5 5 4 3 3 3 4 3 3 3 2 2 3 3 3 2 2 3 2 2 2 2 2 3 3 3 4 5 4 2 2 3 3 3 3 3 3 3 3 2 2 3
3 3 3 3 3 3 3 4 3 3 2 3 3 3 3 3 3 3 3 2 2 3 2 2 3 4 4 4 5 5 2 2 3 2 3 4 4 3 4 4 4 4 4
3 3 3 3 3 3 4 4 3 2 3 2 2 2 2 3 3 2 2 2 2 2 2 2 3 3 4 4 5 5 3 3 3 3 2 3 4 4 5 5 4 6 4
3 3 3 3 2 3 4 3 3 2 1 1 1 1 2 2 2 2 2 2 2 2 2 2 3 2 3 3 4 5 5 4 3 3 3 3 4 5 5 4 5 5 3
2 1 2 2 1 2 3 3 3 2 1 1 1 2 2 2 2 3 3 2 2 2 3 2 3 3 2 3 5 5 5 5 4 3 4 4 4 4 3 4 5 3 2
1 1 1 1 1 1 2 2 2 2 2 2 2 2 2 2 2 2 2 2 3 3 3 3 3 3 3 2 2 2 2 2 2 2 3 3 3 3 3 2 2 2 3
0 1 2 2 1 1 1 1 2 2 2 2 2 2 2 2 2 2 3 3 4 4 4 4 3 3 4 5 4 3 3 2 2 1 0 0 0 1 1 2 2 2 2
1 1 2 2 1 1 1 1 1 2 2 1 2 2 2 3 3 3 3 4 4 5 6 6 5 5 6 6 5 5 5 5 4 2 2 2 3 3 3 3 3 3 3
Wind_Direction
166 154 151 149 145 143 146 156 150 153 148 144 144 143 162 175 168 172 162 155 150 142 142 147 149 149 154 164 154 139 127 140 120 79 16 345 318 206 199 197 182 194 194
154 153 151 149 150 154 156 158 160 160 160 164 163 160 160 174 176 169 153 156 153 150 154 154 160 158 145 134 135 125 122 175 123 124 102 7 345 331 251 189 189 197 173
166 168 165 158 151 155 164 163 162 161 160 156 134 112 79 60 81 142 166 178 161 158 155 163 164 163 157 162 164 148 140 158 226 137 140 143 220 293 321 259 208 189 176
162 162 163 160 164 170 165 156 159 158 158 150 146 150 158 175 197 179 180 188 180 168 164 161 165 167 166 170 180 160 150 142 167 256 191 172 164 156 300 320 304 211 193
165 164 161 163 167 164 165 158 153 157 163 157 158 161 166 184 181 155 157 174 192 182 168 163 164 173 175 177 177 158 156 159 171 183 195 179 129 140 153 246 298 313 249
163 161 160 154 158 163 161 156 151 162 169 162 162 164 168 165 156 159 160 176 191 195 171 162 167 175 174 176 186 186 177 183 184 186 178 164 164 185 169 194 238 259 271
155 153 151 154 160 165 162 160 158 164 168 164 167 170 166 165 172 174 172 171 172 192 206 178 178 180 182 180 175 179 195 191 187 195 204 198 194 175 167 161 191 234 286
149 149 154 156 162 164 158 158 162 167 167 162 167 167 162 163 171 173 168 176 184 195 194 184 188 194 187 187 176 180 204 198 199 209 202 200 212 189 174 170 158 141 313
150 150 155 155 156 157 159 165 167 170 171 167 160 160 163 153 158 163 158 169 183 189 180 183 184 199 196 192 181 189 208 204 204 213 207 201 218 206 192 176 163 157 184
145 142 144 150 154 160 160 165 169 175 172 167 168 166 161 159 162 153 154 165 175 178 172 183 183 195 205 201 185 189 196 183 222 215 211 227 230 229 194 178 169 162 168
150 147 148 150 147 148 150 160 171 167 162 167 165 161 160 159 152 154 163 167 171 171 175 184 189 194 198 200 189 195 181 191 223 239 221 238 227 212 219 184 164 170 164
146 145 144 136 127 131 139 149 157 159 163 162 155 160 158 151 151 159 168 162 168 174 178 177 181 202 202 203 200 206 198 197 212 229 228 244 233 211 217 195 195 199 190
129 130 129 130 136 139 144 149 154 154 153 149 149 150 154 158 168 178 176 165 173 180 186 177 186 208 207 201 204 203 208 214 221 225 218 224 208 222 218 194 199 209 203
128 131 133 133 135 141 145 149 149 143 144 148 152 159 169 170 172 171 171 175 179 183 194 196 203 205 194 190 200 193 203 223 240 239 222 216 203 208 209 204 204 195 158
129 139 140 132 127 132 142 149 147 142 143 147 158 177 173 166 160 163 175 183 187 190 194 191 207 207 197 201 192 199 204 217 242 247 234 228 223 220 212 203 196 189 178
145 148 141 136 142 148 157 149 145 159 154 155 168 169 153 152 157 165 165 161 173 183 174 181 192 197 220 208 198 201 213 215 213 227 242 244 231 231 225 223 211 195 189
155 152 149 156 161 166 161 157 157 152 149 150 149 148 150 148 165 171 156 169 192 192 196 213 201 205 225 221 220 224 212 220 220 214 217 238 243 227 232 242 242 234 221
157 153 150 154 164 149 139 136 130 136 145 154 160 162 161 170 177 168 181 202 208 205 204 213 220 224 243 233 226 224 227 231 228 218 214 215 223 228 216 227 246 255 247
163 161 157 154 152 147 143 132 136 151 157 168 182 181 176 179 182 193 204 208 203 218 215 210 213 223 249 243 232 219 227 238 242 232 213 201 207 225 205 194 216 258 279
137 140 135 124 132 149 139 130 140 151 168 197 202 197 186 183 195 213 221 219 207 223 225 226 226 222 237 246 231 215 207 233 242 242 232 220 214 215 199 196 203 228 250
114 113 121 131 155 156 138 140 151 192 210 215 209 194 207 202 203 208 219 227 229 236 240 241 244 236 235 242 235 219 202 215 227 234 234 235 220 220 224 214 213 226 227
88 109 129 156 173 161 148 156 189 207 195 192 207 214 228 226 214 202 226 233 226 229 246 252 262 260 243 233 238 233 230 217 209 229 232 230 221 221 225 224 234 233 212
91 93 137 150 180 173 162 176 209 184 165 191 237 246 251 246 228 214 224 233 230 225 236 238 248 260 258 247 241 237 239 233 217 228 236 237 225 219 222 232 230 213 194
120 138 137 145 234 218 176 191 202 174 165 213 248 258 266 277 279 255 239 231 231 235 239 236 243 252 256 260 259 255 248 240 238 248 254 248 232 224 230 238 235 213 202
250 157 152 163 231 283 247 220 209 176 179 219 243 261 268 266 272 266 246 238 234 224 220 231 231 235 254 252 240 234 233 223 218 189 83 21 227 231 237 235 235 228 216
167 138 137 159 202 216 245 254 226 187 185 230 246 247 251 261 260 262 280 281 265 256 234 227 225 238 242 245 237 233 240 239 207 172 208 223 223 225 227 229 235 231 226